• In Portugal
  • List of Countries
  • For 7 days
  • Water Temperature
  • Satellite Maps
  • Weather Map
  • Weather Widgets
  • user-avatar
    Login

    Hourly Weather Kanye

    Today, 18 October, Thursday

    Time Temperature Precipitation Wind Pressure Humidity
    00:00 +23°C° 0 mm 2 mps 650 mmHg 19%
    01:00 +22°C° 0 mm 3 mps 650 mmHg 20%
    02:00 +21°C° 0 mm 3 mps 650 mmHg 20%
    03:00 +20°C° 0 mm 3 mps 650 mmHg 21%
    04:00 +20°C° 0 mm 3 mps 650 mmHg 23%
    05:00 +19°C° 0 mm 3 mps 650 mmHg 24%
    06:00 +20°C° 0 mm 4 mps 650 mmHg 25%
    07:00 +21°C° 0 mm 5 mps 651 mmHg 27%
    08:00 +22°C° 0 mm 6 mps 652 mmHg 37%
    09:00 +24°C° 0 mm 6 mps 652 mmHg 34%
    10:00 +27°C° 0 mm 5 mps 652 mmHg 30%
    11:00 +28°C° 0 mm 5 mps 652 mmHg 27%
    12:00 +30°C° 0 mm 3 mps 652 mmHg 24%
    13:00 +31°C° 0 mm 2 mps 652 mmHg 21%
    14:00 +32°C° 0 mm 1 mps 652 mmHg 18%
    15:00 +32°C° 0 mm 1 mps 651 mmHg 17%
    16:00 +32°C° 0 mm 1 mps 651 mmHg 16%
    17:00 +32°C° 0 mm 1 mps 650 mmHg 16%
    18:00 +30°C° 0 mm 2 mps 650 mmHg 18%
    19:00 +29°C° 0 mm 2 mps 650 mmHg 19%
    20:00 +27°C° 0 mm 2 mps 650 mmHg 21%
    21:00 +27°C° 0 mm 2 mps 650 mmHg 24%
    22:00 +26°C° 0 mm 2 mps 650 mmHg 27%
    23:00 +25°C° 0 mm 2 mps 651 mmHg 30%

    Tomorrow, 19 October, Friday

    Time Temperature Precipitation Wind Pressure Humidity
    00:00 +24°C° 0 mm 3 mps 651 mmHg 36%
    01:00 +22°C° 0 mm 3 mps 650 mmHg 43%
    02:00 +22°C° 0 mm 3 mps 650 mmHg 50%
    03:00 +21°C° 0 mm 4 mps 650 mmHg 54%
    04:00 +20°C° 0 mm 4 mps 650 mmHg 58%
    05:00 +19°C° 0 mm 5 mps 650 mmHg 62%
    06:00 +20°C° 0 mm 5 mps 651 mmHg 60%
    07:00 +20°C° 0 mm 6 mps 651 mmHg 59%
    08:00 +21°C° 0 mm 6 mps 652 mmHg 57%
    09:00 +23°C° 0 mm 6 mps 652 mmHg 49%
    10:00 +26°C° 0 mm 6 mps 653 mmHg 42%
    11:00 +28°C° 0 mm 5 mps 653 mmHg 35%
    12:00 +30°C° 0 mm 5 mps 653 mmHg 31%
    13:00 +32°C° 0 mm 4 mps 653 mmHg 26%
    14:00 +33°C° 0 mm 3 mps 652 mmHg 22%
    15:00 +33°C° 0 mm 3 mps 652 mmHg 21%
    16:00 +32°C° 0 mm 2 mps 652 mmHg 20%
    17:00 +34°C° 0 mm 2 mps 651 mmHg 19%
    18:00 +31°C° 0 mm 2 mps 651 mmHg 21%
    19:00 +30°C° 0 mm 3 mps 651 mmHg 23%
    20:00 +28°C° 0 mm 3 mps 651 mmHg 25%
    21:00 +28°C° 0 mm 3 mps 651 mmHg 26%
    22:00 +27°C° 0 mm 3 mps 652 mmHg 28%
    23:00 +26°C° 0 mm 3 mps 652 mmHg 29%

    Day after tomorrow, 20 October, Saturday

    Time Temperature Precipitation Wind Pressure Humidity
    00:00 +26°C° 0 mm 3 mps 651 mmHg 31%
    01:00 +25°C° 0 mm 3 mps 651 mmHg 33%
    02:00 +24°C° 0 mm 3 mps 650 mmHg 34%
    03:00 +24°C° 0 mm 3 mps 650 mmHg 37%
    04:00 +22°C° 0 mm 3 mps 650 mmHg 39%
    05:00 +21°C° 0 mm 3 mps 650 mmHg 41%
    06:00 +24°C° 0 mm 3 mps 651 mmHg 38%
    07:00 +25°C° 0 mm 3 mps 652 mmHg 36%
    08:00 +26°C° 0 mm 3 mps 653 mmHg 33%
    09:00 +28°C° 0 mm 3 mps 654 mmHg 30%
    10:00 +30°C° 0 mm 3 mps 654 mmHg 27%
    11:00 +31°C° 0 mm 3 mps 655 mmHg 24%
    12:00 +32°C° 0 mm 2 mps 654 mmHg 22%
    13:00 +35°C° 0 mm 2 mps 654 mmHg 19%
    14:00 +36°C° 0 mm 2 mps 653 mmHg 17%
    15:00 +35°C° 0 mm 2 mps 653 mmHg 17%
    16:00 +35°C° 0 mm 2 mps 652 mmHg 17%
    17:00 +35°C° 0 mm 2 mps 652 mmHg 17%
    18:00 +32°C° 0.2 mm 2 mps 652 mmHg 21%
    19:00 +31°C° 0.2 mm 3 mps 652 mmHg 24%
    20:00 +29°C° 0.2 mm 3 mps 652 mmHg 27%
    21:00 +28°C° 0.5 mm 4 mps 653 mmHg 31%
    22:00 +27°C° 0.5 mm 5 mps 653 mmHg 34%
    23:00 +26°C° 0.5 mm 6 mps 654 mmHg 37%

    21 October, Sunday

    Time Temperature Precipitation Wind Pressure Humidity
    00:00 +23°C° 0.1 mm 7 mps 654 mmHg 45%
    01:00 +21°C° 0.1 mm 8 mps 653 mmHg 53%
    02:00 +18°C° 0.1 mm 9 mps 653 mmHg 61%
    03:00 +18°C° 0 mm 9 mps 653 mmHg 61%
    04:00 +17°C° 0 mm 10 mps 654 mmHg 61%
    05:00 +16°C° 0 mm 10 mps 654 mmHg 61%
    06:00 +16°C° 0.2 mm 10 mps 654 mmHg 60%
    07:00 +16°C° 0.2 mm 10 mps 655 mmHg 59%
    08:00 +16°C° 0.2 mm 10 mps 656 mmHg 58%
    09:00 +17°C° 0.2 mm 10 mps 656 mmHg 55%
    10:00 +18°C° 0.2 mm 10 mps 656 mmHg 52%
    11:00 +19°C° 0.2 mm 10 mps 656 mmHg 49%
    12:00 +21°C° 0.2 mm 10 mps 656 mmHg 46%
    13:00 +22°C° 0.2 mm 9 mps 656 mmHg 43%
    14:00 +23°C° 0.2 mm 9 mps 655 mmHg 40%
    15:00 +23°C° 0.1 mm 9 mps 655 mmHg 40%
    16:00 +22°C° 0.1 mm 9 mps 655 mmHg 40%
    17:00 +22°C° 0.1 mm 8 mps 654 mmHg 41%
    18:00 +21°C° 0 mm 8 mps 655 mmHg 42%
    19:00 +20°C° 0 mm 8 mps 655 mmHg 43%
    20:00 +18°C° 0 mm 8 mps 655 mmHg 45%
    21:00 +18°C° 0 mm 8 mps 655 mmHg 45%
    22:00 +17°C° 0 mm 9 mps 655 mmHg 45%
    23:00 +17°C° 0 mm 9 mps 655 mmHg 45%

    22 October, Monday

    Time Temperature Precipitation Wind Pressure Humidity
    00:00 +16°C° 0 mm 9 mps 655 mmHg 44%
    01:00 +15°C° 0 mm 9 mps 655 mmHg 43%
    02:00 +14°C° 0 mm 10 mps 654 mmHg 43%
    03:00 +13°C° 0 mm 10 mps 654 mmHg 45%
    04:00 +13°C° 0 mm 10 mps 654 mmHg 48%
    05:00 +12°C° 0 mm 9 mps 654 mmHg 51%
    06:00 +12°C° 0.3 mm 10 mps 654 mmHg 52%
    07:00 +12°C° 0.3 mm 10 mps 655 mmHg 54%
    08:00 +12°C° 0.3 mm 11 mps 655 mmHg 55%
    09:00 +12°C° 0.2 mm 11 mps 655 mmHg 53%
    10:00 +13°C° 0.2 mm 11 mps 655 mmHg 50%
    11:00 +14°C° 0.2 mm 11 mps 655 mmHg 47%
    12:00 +14°C° 0.4 mm 10 mps 655 mmHg 47%
    13:00 +16°C° 0.4 mm 9 mps 654 mmHg 48%
    14:00 +16°C° 0.4 mm 8 mps 654 mmHg 48%
    15:00 +16°C° 0.9 mm 8 mps 653 mmHg 50%
    16:00 +16°C° 0.9 mm 8 mps 653 mmHg 52%
    17:00 +15°C° 0.9 mm 7 mps 653 mmHg 54%
    18:00 +15°C° 0.5 mm 7 mps 653 mmHg 57%
    19:00 +14°C° 0.5 mm 7 mps 653 mmHg 61%
    20:00 +14°C° 0.5 mm 7 mps 653 mmHg 64%
    21:00 +14°C° 0.1 mm 7 mps 653 mmHg 63%
    22:00 +13°C° 0.1 mm 8 mps 653 mmHg 61%
    23:00 +13°C° 0.1 mm 8 mps 653 mmHg 60%

    23 October, Tuesday

    Time Temperature Precipitation Wind Pressure Humidity
    00:00 +12°C° 0.5 mm 7 mps 653 mmHg 60%
    01:00 +12°C° 0.5 mm 7 mps 653 mmHg 59%
    02:00 +13°C° 0.5 mm 6 mps 653 mmHg 59%
    03:00 +11°C° 1.8 mm 7 mps 653 mmHg 64%
    04:00 +11°C° 1.8 mm 7 mps 653 mmHg 69%
    05:00 +10°C° 1.8 mm 7 mps 653 mmHg 74%
    06:00 +11°C° 0.7 mm 7 mps 653 mmHg 71%
    07:00 +11°C° 0.7 mm 8 mps 654 mmHg 69%
    08:00 +11°C° 0.7 mm 8 mps 654 mmHg 66%
    09:00 +13°C° 0.2 mm 8 mps 655 mmHg 63%
    10:00 +15°C° 0.2 mm 8 mps 655 mmHg 60%
    11:00 +16°C° 0.2 mm 8 mps 656 mmHg 57%
    12:00 +15°C° 0.4 mm 7 mps 655 mmHg 59%
    13:00 +15°C° 0.4 mm 7 mps 655 mmHg 61%
    14:00 +15°C° 0.4 mm 6 mps 655 mmHg 63%
    15:00 +15°C° 0.6 mm 6 mps 654 mmHg 67%
    16:00 +14°C° 0.6 mm 6 mps 654 mmHg 71%
    17:00 +14°C° 0.6 mm 6 mps 654 mmHg 75%
    18:00 +13°C° 0.2 mm 6 mps 654 mmHg 77%
    19:00 +13°C° 0.2 mm 6 mps 654 mmHg 79%
    20:00 +12°C° 0.2 mm 7 mps 654 mmHg 81%
    21:00 +12°C° 0 mm 7 mps 654 mmHg 81%
    22:00 +11°C° 0 mm 6 mps 654 mmHg 82%
    23:00 +11°C° 0 mm 6 mps 653 mmHg 83%
    Show more